DAL2395 KATL-KCVG

Flight info

Callsign DAL2395
Flight time 1h 4m
Altitude 37000
Route PADGT2 SMTTH ARTUR JAKIE7
Aircraft B739/M-SDE2E3FGHIRWXY/LB1

Departure

Time 2026-05-04 15:32
Airport Hartsfield Jackson Atlanta International Airport (KATL)

Arrival

Time 2026-05-04 16:37
Airport Cincinnati Northern Kentucky International Airport (KCVG)
Time Latitude Longitude Altitude Speed Heading
2026-05-04 15:10 33.64151 -84.43322 1005 ft 0 kts 90°
2026-05-04 15:21 33.64152 -84.43333 1005 ft 4 kts 54°
2026-05-04 15:22 33.64149 -84.43356 1005 ft 4 kts 78°
2026-05-04 15:22 33.64139 -84.43383 1005 ft 4 kts 38°
2026-05-04 15:22 33.64115 -84.43393 1005 ft 0 kts 360°
2026-05-04 15:25 33.64116 -84.43393 1005 ft 1 kts 360°
2026-05-04 15:25 33.64165 -84.43393 1005 ft 14 kts 360°
2026-05-04 15:26 33.64386 -84.43396 1005 ft 16 kts 359°
2026-05-04 15:26 33.64460 -84.43323 1006 ft 15 kts 78°
2026-05-04 15:26 33.64462 -84.43084 1006 ft 14 kts 90°
2026-05-04 15:27 33.64462 -84.42971 1005 ft 13 kts 90°
2026-05-04 15:27 33.64462 -84.42755 1005 ft 14 kts 88°
2026-05-04 15:28 33.64468 -84.42381 1005 ft 26 kts 90°
2026-05-04 15:28 33.64507 -84.42182 1005 ft 24 kts 59°
2026-05-04 15:28 33.64541 -84.41809 1005 ft 23 kts 90°
2026-05-04 15:29 33.64544 -84.41620 1006 ft 23 kts 90°
2026-05-04 15:30 33.64542 -84.40906 1005 ft 20 kts 89°
2026-05-04 15:30 33.64606 -84.40575 1004 ft 6 kts 21°
2026-05-04 15:31 33.64679 -84.40664 1003 ft 0 kts 269°
2026-05-04 15:32 33.64684 -84.42648 1005 ft 159 kts 269°
2026-05-04 15:32 33.64692 -84.45446 2123 ft 168 kts 269°
2026-05-04 15:33 33.65411 -84.48267 2949 ft 200 kts 295°
2026-05-04 15:34 33.67456 -84.53406 3727 ft 253 kts 293°
2026-05-04 15:34 33.68208 -84.55394 4287 ft 262 kts 296°
2026-05-04 15:34 33.70942 -84.58080 5771 ft 274 kts 346°
2026-05-04 15:35 33.74840 -84.58202 7145 ft 283 kts
2026-05-04 15:35 33.76588 -84.58157 7785 ft 285 kts
2026-05-04 15:35 33.78615 -84.58112 8478 ft 289 kts
2026-05-04 15:36 33.82665 -84.57701 9868 ft 295 kts 16°
2026-05-04 15:36 33.84638 -84.57000 10474 ft 303 kts 17°
2026-05-04 15:36 33.86717 -84.56188 10635 ft 324 kts 18°
2026-05-04 15:37 33.88923 -84.55317 10824 ft 343 kts 18°
2026-05-04 15:37 33.90468 -84.54715 11102 ft 350 kts 17°
2026-05-04 15:37 33.92827 -84.53810 11677 ft 356 kts 16°
2026-05-04 15:37 33.95187 -84.52920 12369 ft 357 kts 16°
2026-05-04 15:38 33.98352 -84.51738 13322 ft 360 kts 15°
2026-05-04 15:38 33.99974 -84.51135 13801 ft 363 kts 15°
2026-05-04 15:38 34.03194 -84.49943 14666 ft 367 kts 14°
2026-05-04 15:38 34.04845 -84.49332 15146 ft 368 kts 14°
2026-05-04 15:39 34.07298 -84.48425 15836 ft 369 kts 13°
2026-05-04 15:39 34.09763 -84.47513 16536 ft 371 kts 13°
2026-05-04 15:39 34.14728 -84.45675 17910 ft 375 kts 12°
2026-05-04 15:40 34.17201 -84.44758 18543 ft 377 kts 12°
2026-05-04 15:40 34.19729 -84.43821 19090 ft 381 kts 12°
2026-05-04 15:40 34.22277 -84.42875 19600 ft 385 kts 12°
2026-05-04 15:40 34.24851 -84.41920 20100 ft 389 kts 12°
2026-05-04 15:41 34.27455 -84.40952 20648 ft 392 kts 11°
2026-05-04 15:41 34.30078 -84.39990 21185 ft 394 kts
2026-05-04 15:41 34.32751 -84.39220 21673 ft 396 kts
2026-05-04 15:41 34.35467 -84.38578 22166 ft 399 kts
2026-05-04 15:42 34.38206 -84.37969 22711 ft 402 kts
2026-05-04 15:42 34.40980 -84.37349 23191 ft 405 kts
2026-05-04 15:42 34.43770 -84.36711 23681 ft 409 kts
2026-05-04 15:42 34.46587 -84.36051 24089 ft 413 kts
2026-05-04 15:43 34.49372 -84.35387 24517 ft 415 kts
2026-05-04 15:43 34.52220 -84.34701 24958 ft 418 kts
2026-05-04 15:43 34.55084 -84.34008 25359 ft 421 kts
2026-05-04 15:43 34.57966 -84.33311 25755 ft 424 kts
2026-05-04 15:44 34.60874 -84.32606 26198 ft 426 kts
2026-05-04 15:44 34.63794 -84.31897 26629 ft 428 kts
2026-05-04 15:44 34.66731 -84.31185 27023 ft 431 kts
2026-05-04 15:44 34.69692 -84.30466 27392 ft 434 kts
2026-05-04 15:45 34.72672 -84.29743 27777 ft 438 kts
2026-05-04 15:45 34.75633 -84.29018 28151 ft 440 kts
2026-05-04 15:45 34.78652 -84.28286 28475 ft 444 kts
2026-05-04 15:45 34.81703 -84.27550 28784 ft 448 kts
2026-05-04 15:46 34.84764 -84.26807 29195 ft 449 kts
2026-05-04 15:46 34.87831 -84.26060 29625 ft 451 kts
2026-05-04 15:46 34.90926 -84.25303 29985 ft 453 kts
2026-05-04 15:46 34.94032 -84.24544 30290 ft 456 kts
2026-05-04 15:47 34.97108 -84.23791 30615 ft 457 kts
2026-05-04 15:47 35.00218 -84.23028 31068 ft 454 kts
2026-05-04 15:47 35.03307 -84.22268 31546 ft 451 kts
2026-05-04 15:47 35.06386 -84.21512 31919 ft 451 kts
2026-05-04 15:48 35.09469 -84.20757 32246 ft 451 kts
2026-05-04 15:48 35.12546 -84.20005 32556 ft 451 kts
2026-05-04 15:48 35.18638 -84.18505 33455 ft 446 kts
2026-05-04 15:49 35.21682 -84.17755 33793 ft 446 kts
2026-05-04 15:49 35.24726 -84.17006 34073 ft 446 kts
2026-05-04 15:49 35.27767 -84.16258 34370 ft 446 kts
2026-05-04 15:49 35.30809 -84.15513 34664 ft 444 kts
2026-05-04 15:50 35.33849 -84.14764 34968 ft 443 kts
2026-05-04 15:50 35.36866 -84.14019 35259 ft 443 kts
2026-05-04 15:50 35.39886 -84.13270 35583 ft 441 kts
2026-05-04 15:50 35.42887 -84.12526 35858 ft 440 kts
2026-05-04 15:51 35.45847 -84.11792 36094 ft 440 kts
2026-05-04 15:51 35.48853 -84.11048 36318 ft 440 kts
2026-05-04 15:51 35.51857 -84.10304 36553 ft 440 kts
2026-05-04 15:51 35.54890 -84.09552 36813 ft 439 kts
2026-05-04 15:52 35.57895 -84.08806 37046 ft 439 kts
2026-05-04 15:52 35.60859 -84.08071 37094 ft 442 kts
2026-05-04 15:52 35.66887 -84.06573 37111 ft 440 kts
2026-05-04 15:53 35.72860 -84.05082 37102 ft 436 kts
2026-05-04 15:53 35.78796 -84.03600 37115 ft 433 kts
2026-05-04 15:54 35.84706 -84.02125 37108 ft 432 kts
2026-05-04 15:54 35.90610 -84.00649 37098 ft 432 kts
2026-05-04 15:55 35.96490 -83.98802 37099 ft 438 kts
2026-05-04 15:55 36.02331 -83.96664 37102 ft 441 kts
2026-05-04 15:56 36.08248 -83.94514 37099 ft 443 kts
2026-05-04 15:56 36.14189 -83.92400 37098 ft 446 kts
2026-05-04 15:57 36.20168 -83.90284 37093 ft 447 kts
2026-05-04 15:57 36.26126 -83.88174 37088 ft 447 kts
2026-05-04 15:58 36.32114 -83.86049 37081 ft 447 kts
2026-05-04 15:58 36.38107 -83.83918 37084 ft 447 kts
2026-05-04 15:59 36.44077 -83.81790 37085 ft 444 kts
2026-05-04 15:59 36.49973 -83.79688 37080 ft 442 kts
2026-05-04 16:00 36.55834 -83.77806 37083 ft 433 kts
2026-05-04 16:00 36.61748 -83.76787 37087 ft 428 kts 359°
2026-05-04 16:01 36.67664 -83.75889 37098 ft 427 kts 360°
2026-05-04 16:01 36.73559 -83.74930 37086 ft 427 kts
2026-05-04 16:02 36.79448 -83.73908 37089 ft 427 kts
2026-05-04 16:03 36.88251 -83.72350 37083 ft 428 kts
2026-05-04 16:03 36.94173 -83.71304 37075 ft 429 kts
2026-05-04 16:04 37.00073 -83.70259 37074 ft 431 kts
2026-05-04 16:04 37.08999 -83.68674 37074 ft 433 kts
2026-05-04 16:05 37.14985 -83.67609 37063 ft 434 kts
2026-05-04 16:06 37.23947 -83.66009 37062 ft 435 kts
2026-05-04 16:07 37.35898 -83.64633 37072 ft 420 kts 346°
2026-05-04 16:08 37.47458 -83.66718 37036 ft 420 kts 346°
2026-05-04 16:09 37.61951 -83.69088 37030 ft 420 kts 346°
2026-05-04 16:10 37.73603 -83.70990 36404 ft 424 kts 346°
2026-05-04 16:11 37.82205 -83.72409 34967 ft 408 kts 344°
2026-05-04 16:11 37.84848 -83.73465 34558 ft 391 kts 328°
2026-05-04 16:12 37.91693 -83.78341 33496 ft 368 kts 326°
2026-05-04 16:12 37.98259 -83.83070 32122 ft 356 kts 326°
2026-05-04 16:13 38.02498 -83.86098 31252 ft 349 kts 326°
2026-05-04 16:13 38.06706 -83.89103 30411 ft 343 kts 326°
2026-05-04 16:14 38.10824 -83.92044 29518 ft 338 kts 326°
2026-05-04 16:14 38.14884 -83.94946 28676 ft 330 kts 326°
2026-05-04 16:15 38.20819 -83.99196 27436 ft 321 kts 326°
2026-05-04 16:16 38.24659 -84.01952 26643 ft 317 kts 325°
2026-05-04 16:16 38.30451 -84.06119 25485 ft 327 kts 325°
2026-05-04 16:17 38.34489 -84.09027 24632 ft 334 kts 325°
2026-05-04 16:18 38.40502 -84.13355 23371 ft 330 kts 325°
2026-05-04 16:18 38.42491 -84.14789 22932 ft 328 kts 325°
2026-05-04 16:19 38.48403 -84.19059 21676 ft 322 kts 324°
2026-05-04 16:19 38.52274 -84.21860 20849 ft 319 kts 325°
2026-05-04 16:20 38.58020 -84.26027 19680 ft 314 kts 324°
2026-05-04 16:20 38.61805 -84.28775 18910 ft 310 kts 324°
2026-05-04 16:21 38.66346 -84.32962 17684 ft 295 kts 306°
2026-05-04 16:22 38.68974 -84.36925 16768 ft 290 kts 305°
2026-05-04 16:22 38.73220 -84.43394 15592 ft 282 kts 305°
2026-05-04 16:23 38.76603 -84.48405 14708 ft 276 kts 306°
2026-05-04 16:24 38.81560 -84.55793 13313 ft 272 kts 305°
2026-05-04 16:25 38.84004 -84.59447 12649 ft 267 kts 305°
2026-05-04 16:26 38.88762 -84.66575 11356 ft 259 kts 304°
2026-05-04 16:26 38.92273 -84.71846 10347 ft 258 kts 304°
2026-05-04 16:27 38.94553 -84.75269 10030 ft 244 kts 304°
2026-05-04 16:28 38.99095 -84.78090 9060 ft 283 kts 352°
2026-05-04 16:28 39.04928 -84.77954 8062 ft 284 kts 352°
2026-05-04 16:29 39.12574 -84.77859 6780 ft 270 kts 351°
2026-05-04 16:30 39.18075 -84.77883 6038 ft 262 kts 351°
2026-05-04 16:31 39.21686 -84.77902 5529 ft 259 kts 351°
2026-05-04 16:31 39.26730 -84.77249 4839 ft 281 kts 26°
2026-05-04 16:32 39.27840 -84.70448 4088 ft 279 kts 134°
2026-05-04 16:33 39.24776 -84.68019 3952 ft 249 kts 164°
2026-05-04 16:33 39.21717 -84.66745 3802 ft 220 kts 191°
2026-05-04 16:34 39.18627 -84.66831 3266 ft 225 kts 187°
2026-05-04 16:34 39.17090 -84.66815 2955 ft 215 kts 187°
2026-05-04 16:35 39.13056 -84.66833 2187 ft 179 kts 186°
2026-05-04 16:35 39.09760 -84.66835 1584 ft 136 kts 185°
2026-05-04 16:36 39.08831 -84.66851 1422 ft 135 kts 182°
2026-05-04 16:36 39.06970 -84.66873 1014 ft 138 kts 181°
2026-05-04 16:37 39.05264 -84.66868 880 ft 96 kts 180°
2026-05-04 16:37 39.04750 -84.66871 884 ft 38 kts 180°
2026-05-04 16:37 39.04672 -84.66733 884 ft 15 kts 15°
2026-05-04 16:38 39.04750 -84.66667 881 ft 17 kts 45°
2026-05-04 16:39 39.05214 -84.66601 878 ft 23 kts 78°
2026-05-04 16:39 39.05215 -84.66207 878 ft 21 kts 90°
2026-05-04 16:40 39.05211 -84.65837 878 ft 20 kts 91°
2026-05-04 16:40 39.05211 -84.65488 878 ft 19 kts 91°
2026-05-04 16:41 39.05212 -84.65333 878 ft 6 kts 89°
2026-05-04 16:41 39.05284 -84.65241 878 ft 0 kts 360°